RYR3349 GCTS-LEMG

Flight info

Callsign RYR3349
Flight time 2h 7m
Altitude 36000
Route KORAL UG5 SONSO DCT NIRAL UN871 ADUBI DCT VJF
Aircraft B738/M-SDE3FGILRWY/SB1

Departure

Time 2026-05-06 21:35
Airport Tenerife Sur Airport (GCTS)

Arrival

Time 2026-05-06 23:43
Airport Málaga-Costa del Sol Airport (LEMG)
Time Latitude Longitude Altitude Speed Heading
2026-05-06 20:58 28.04646 -16.57841 225 ft 0 kts 338°
2026-05-06 21:01 28.04709 -16.57681 226 ft 0 kts 338°
2026-05-06 21:26 28.04691 -16.57672 225 ft 3 kts 339°
2026-05-06 21:26 28.04668 -16.57662 225 ft 4 kts 339°
2026-05-06 21:26 28.04649 -16.57653 224 ft 4 kts 319°
2026-05-06 21:26 28.04639 -16.57634 224 ft 4 kts 262°
2026-05-06 21:27 28.04644 -16.57612 223 ft 1 kts 250°
2026-05-06 21:27 28.04645 -16.57608 223 ft 1 kts 250°
2026-05-06 21:29 28.04644 -16.57610 196 ft 2 kts 250°
2026-05-06 21:30 28.04627 -16.57663 223 ft 11 kts 249°
2026-05-06 21:30 28.04597 -16.57748 223 ft 12 kts 248°
2026-05-06 21:30 28.04565 -16.57841 223 ft 14 kts 249°
2026-05-06 21:30 28.04538 -16.57917 223 ft 9 kts 228°
2026-05-06 21:31 28.04482 -16.57920 222 ft 9 kts 159°
2026-05-06 21:31 28.04423 -16.57898 222 ft 9 kts 181°
2026-05-06 21:31 28.04388 -16.57943 222 ft 8 kts 248°
2026-05-06 21:31 28.04364 -16.58014 222 ft 14 kts 248°
2026-05-06 21:32 28.04318 -16.58146 223 ft 20 kts 249°
2026-05-06 21:32 28.04217 -16.58436 223 ft 19 kts 248°
2026-05-06 21:32 28.04176 -16.58576 222 ft 19 kts 249°
2026-05-06 21:33 28.04127 -16.58716 216 ft 18 kts 248°
2026-05-06 21:33 28.04090 -16.58822 212 ft 8 kts 248°
2026-05-06 21:33 28.04063 -16.58869 210 ft 7 kts 213°
2026-05-06 21:33 28.04016 -16.58871 208 ft 7 kts 159°
2026-05-06 21:34 28.03972 -16.58806 199 ft 15 kts 107°
2026-05-06 21:34 28.03957 -16.58682 205 ft 16 kts 84°
2026-05-06 21:34 28.03990 -16.58561 207 ft 20 kts 68°
2026-05-06 21:34 28.04131 -16.58157 192 ft 90 kts 68°
2026-05-06 21:35 28.04441 -16.57272 198 ft 149 kts 68°
2026-05-06 21:35 28.04846 -16.56116 693 ft 162 kts 70°
2026-05-06 21:35 28.05258 -16.54900 1423 ft 167 kts 68°
2026-05-06 21:35 28.05699 -16.53698 2239 ft 169 kts 65°
2026-05-06 21:36 28.06163 -16.52372 2567 ft 194 kts 65°
2026-05-06 21:36 28.06678 -16.50873 2786 ft 215 kts 68°
2026-05-06 21:36 28.07242 -16.49239 3116 ft 229 kts 66°
2026-05-06 21:36 28.07855 -16.47481 3351 ft 250 kts 66°
2026-05-06 21:37 28.08507 -16.45603 3901 ft 260 kts 69°
2026-05-06 21:37 28.08864 -16.43571 4608 ft 268 kts 84°
2026-05-06 21:37 28.09002 -16.41449 5352 ft 272 kts 85°
2026-05-06 21:37 28.09133 -16.39292 6090 ft 277 kts 84°
2026-05-06 21:38 28.09342 -16.37109 6774 ft 281 kts 72°
2026-05-06 21:38 28.10117 -16.35082 7527 ft 281 kts 61°
2026-05-06 21:38 28.11044 -16.33115 8193 ft 287 kts 58°
2026-05-06 21:38 28.11999 -16.31115 8911 ft 290 kts 57°
2026-05-06 21:39 28.12954 -16.29099 9674 ft 292 kts 58°
2026-05-06 21:39 28.13915 -16.27051 10276 ft 299 kts 58°
2026-05-06 21:39 28.14837 -16.25070 10446 ft 320 kts 59°
2026-05-06 21:40 28.15171 -16.24349 10517 ft 326 kts 60°
2026-05-06 21:40 28.16255 -16.21995 10741 ft 345 kts 59°
2026-05-06 21:40 28.17375 -16.19544 11235 ft 353 kts 60°
2026-05-06 21:40 28.18503 -16.17054 11884 ft 357 kts 60°
2026-05-06 21:41 28.19646 -16.14521 12455 ft 364 kts 60°
2026-05-06 21:41 28.20803 -16.11953 13138 ft 368 kts 60°
2026-05-06 21:41 28.21974 -16.09347 13722 ft 374 kts 60°
2026-05-06 21:41 28.23149 -16.06732 14306 ft 379 kts 60°
2026-05-06 21:42 28.24344 -16.04067 14985 ft 381 kts 60°
2026-05-06 21:42 28.25548 -16.01381 15680 ft 382 kts 60°
2026-05-06 21:42 28.26755 -15.98685 16376 ft 385 kts 60°
2026-05-06 21:42 28.27975 -15.95962 17007 ft 389 kts 60°
2026-05-06 21:43 28.29206 -15.93212 17639 ft 393 kts 60°
2026-05-06 21:43 28.30448 -15.90436 18280 ft 396 kts 60°
2026-05-06 21:43 28.31697 -15.87642 18809 ft 398 kts 63°
2026-05-06 21:43 28.32956 -15.84823 19260 ft 403 kts 60°
2026-05-06 21:44 28.34225 -15.81979 19869 ft 403 kts 60°
2026-05-06 21:44 28.35490 -15.79142 20534 ft 403 kts 60°
2026-05-06 21:44 28.36777 -15.76254 21139 ft 405 kts 59°
2026-05-06 21:44 28.38055 -15.73386 21682 ft 408 kts 59°
2026-05-06 21:45 28.39323 -15.70538 22203 ft 411 kts 59°
2026-05-06 21:45 28.40616 -15.67631 22745 ft 413 kts 59°
2026-05-06 21:45 28.41915 -15.64710 23284 ft 416 kts 59°
2026-05-06 21:45 28.43223 -15.61767 23719 ft 421 kts 59°
2026-05-06 21:46 28.44551 -15.58778 24056 ft 425 kts 59°
2026-05-06 21:46 28.45885 -15.55770 24511 ft 427 kts 59°
2026-05-06 21:46 28.47221 -15.52754 24992 ft 428 kts 59°
2026-05-06 21:46 28.48559 -15.49730 25431 ft 429 kts 59°
2026-05-06 21:47 28.49905 -15.46688 25835 ft 432 kts 59°
2026-05-06 21:47 28.51258 -15.43627 26236 ft 434 kts 59°
2026-05-06 21:47 28.52617 -15.40552 26640 ft 436 kts 59°
2026-05-06 21:47 28.53982 -15.37460 27038 ft 438 kts 59°
2026-05-06 21:48 28.55352 -15.34354 27423 ft 440 kts 59°
2026-05-06 21:48 28.56727 -15.31235 27802 ft 442 kts 59°
2026-05-06 21:48 28.58111 -15.28093 28176 ft 445 kts 59°
2026-05-06 21:48 28.59497 -15.24943 28538 ft 447 kts 58°
2026-05-06 21:49 28.60892 -15.21772 28897 ft 449 kts 58°
2026-05-06 21:49 28.62291 -15.18588 29255 ft 451 kts 58°
2026-05-06 21:49 28.63697 -15.15386 29591 ft 453 kts 58°
2026-05-06 21:49 28.65107 -15.12171 29925 ft 455 kts 58°
2026-05-06 21:50 28.66521 -15.08946 30243 ft 456 kts 58°
2026-05-06 21:50 28.67936 -15.05713 30602 ft 456 kts 58°
2026-05-06 21:50 28.69344 -15.02493 31045 ft 453 kts 58°
2026-05-06 21:50 28.70742 -14.99290 31494 ft 450 kts 58°
2026-05-06 21:51 28.72134 -14.96102 31881 ft 449 kts 58°
2026-05-06 21:51 28.73523 -14.92919 32225 ft 449 kts 58°
2026-05-06 21:51 28.74917 -14.89728 32463 ft 451 kts 58°
2026-05-06 21:51 28.76316 -14.86521 32759 ft 452 kts 58°
2026-05-06 21:52 28.77710 -14.83321 33143 ft 450 kts 58°
2026-05-06 21:52 28.79098 -14.80130 33541 ft 448 kts 58°
2026-05-06 21:52 28.80478 -14.76953 33878 ft 447 kts 58°
2026-05-06 21:52 28.81860 -14.73773 34150 ft 448 kts 58°
2026-05-06 21:53 28.83243 -14.70589 34390 ft 448 kts 58°
2026-05-06 21:53 28.84627 -14.67400 34623 ft 449 kts 59°
2026-05-06 21:53 28.86009 -14.64212 34849 ft 449 kts 59°
2026-05-06 21:53 28.87394 -14.61014 35095 ft 449 kts 59°
2026-05-06 21:54 28.88776 -14.57820 35321 ft 450 kts 59°
2026-05-06 21:54 28.90163 -14.54614 35510 ft 452 kts 59°
2026-05-06 21:54 28.91541 -14.51427 35621 ft 455 kts 59°
2026-05-06 21:54 28.92956 -14.48149 35876 ft 454 kts 59°
2026-05-06 21:55 28.94331 -14.44960 36037 ft 456 kts 59°
2026-05-06 21:55 28.95739 -14.41695 36023 ft 460 kts 59°
2026-05-06 21:55 28.98590 -14.35076 36033 ft 468 kts 59°
2026-05-06 21:56 29.01480 -14.28352 36027 ft 473 kts 59°
2026-05-06 21:56 29.04383 -14.21579 36028 ft 475 kts 59°
2026-05-06 21:57 29.07291 -14.14784 36037 ft 476 kts 60°
2026-05-06 21:57 29.09709 -14.09126 36022 ft 477 kts 60°
2026-05-06 21:58 29.12635 -14.02269 36020 ft 476 kts 60°
2026-05-06 21:58 29.15514 -13.95512 36017 ft 475 kts 60°
2026-05-06 21:59 29.18405 -13.88715 36021 ft 474 kts 60°
2026-05-06 21:59 29.21285 -13.81931 36021 ft 474 kts 60°
2026-05-06 22:00 29.24159 -13.75150 36019 ft 473 kts 60°
2026-05-06 22:00 29.27025 -13.68377 36021 ft 472 kts 60°
2026-05-06 22:01 29.29885 -13.61605 36022 ft 472 kts 60°
2026-05-06 22:01 29.32738 -13.54841 36023 ft 471 kts 60°
2026-05-06 22:02 29.35584 -13.48078 36027 ft 471 kts 61°
2026-05-06 22:02 29.38434 -13.41296 36021 ft 473 kts 61°
2026-05-06 22:03 29.41286 -13.34496 36020 ft 474 kts 61°
2026-05-06 22:03 29.44780 -13.28166 36031 ft 467 kts 44°
2026-05-06 22:04 29.49225 -13.22729 36024 ft 467 kts 42°
2026-05-06 22:04 29.53720 -13.17305 36022 ft 471 kts 43°
2026-05-06 22:05 29.58243 -13.11776 36028 ft 478 kts 43°
2026-05-06 22:05 29.62801 -13.06146 36020 ft 484 kts 44°
2026-05-06 22:06 29.67388 -13.00455 36017 ft 486 kts 44°
2026-05-06 22:06 29.71988 -12.94738 36014 ft 487 kts 44°
2026-05-06 22:07 29.76556 -12.89056 36029 ft 486 kts 44°
2026-05-06 22:07 29.81141 -12.83346 36011 ft 484 kts 44°
2026-05-06 22:08 29.85701 -12.77661 36007 ft 482 kts 44°
2026-05-06 22:08 29.90253 -12.71980 36008 ft 482 kts 44°
2026-05-06 22:09 29.94803 -12.66290 36014 ft 483 kts 44°
2026-05-06 22:09 29.99357 -12.60589 36012 ft 484 kts 44°
2026-05-06 22:10 30.03915 -12.54873 36014 ft 484 kts 44°
2026-05-06 22:10 30.08475 -12.49146 36010 ft 484 kts 44°
2026-05-06 22:11 30.13031 -12.43416 36010 ft 484 kts 44°
2026-05-06 22:11 30.17594 -12.37669 35995 ft 486 kts 45°
2026-05-06 22:12 30.22171 -12.31896 36012 ft 488 kts 45°
2026-05-06 22:12 30.26767 -12.26091 36008 ft 490 kts 45°
2026-05-06 22:13 30.31376 -12.20259 36008 ft 492 kts 45°
2026-05-06 22:13 30.35995 -12.14406 35997 ft 493 kts 45°
2026-05-06 22:14 30.40615 -12.08542 36018 ft 493 kts 45°
2026-05-06 22:14 30.45228 -12.02679 35991 ft 493 kts 45°
2026-05-06 22:15 30.49849 -11.96799 36004 ft 494 kts 45°
2026-05-06 22:15 30.54474 -11.90903 35997 ft 495 kts 45°
2026-05-06 22:16 30.59104 -11.84990 35994 ft 495 kts 45°
2026-05-06 22:16 30.63735 -11.79068 35993 ft 495 kts 45°
2026-05-06 22:17 30.68365 -11.73139 35988 ft 495 kts 45°
2026-05-06 22:17 30.72992 -11.67204 36005 ft 495 kts 45°
2026-05-06 22:18 30.77587 -11.61301 35988 ft 495 kts 45°
2026-05-06 22:18 30.82202 -11.55363 35982 ft 495 kts 45°
2026-05-06 22:19 30.86810 -11.49426 35983 ft 494 kts 45°
2026-05-06 22:19 30.91413 -11.43485 35981 ft 494 kts 45°
2026-05-06 22:20 30.96009 -11.37544 35984 ft 493 kts 45°
2026-05-06 22:20 31.00599 -11.31602 35988 ft 493 kts 45°
2026-05-06 22:21 31.05194 -11.25645 35997 ft 495 kts 45°
2026-05-06 22:21 31.09799 -11.19665 35986 ft 496 kts 45°
2026-05-06 22:22 31.14415 -11.13661 35976 ft 497 kts 45°
2026-05-06 22:22 31.19028 -11.07651 35985 ft 497 kts 45°
2026-05-06 22:23 31.23645 -11.01626 35985 ft 498 kts 45°
2026-05-06 22:23 31.28260 -10.95594 35976 ft 498 kts 45°
2026-05-06 22:24 31.32880 -10.89548 35976 ft 499 kts 46°
2026-05-06 22:24 31.37510 -10.83478 35980 ft 501 kts 46°
2026-05-06 22:25 31.42147 -10.77388 35980 ft 501 kts 46°
2026-05-06 22:25 31.46785 -10.71288 35970 ft 502 kts 46°
2026-05-06 22:26 31.51424 -10.65176 35970 ft 502 kts 46°
2026-05-06 22:26 31.56057 -10.59063 35975 ft 502 kts 46°
2026-05-06 22:27 31.60694 -10.52935 35963 ft 503 kts 46°
2026-05-06 22:27 31.65341 -10.46782 36000 ft 504 kts 46°
2026-05-06 22:28 31.69998 -10.40608 35979 ft 505 kts 46°
2026-05-06 22:28 31.74658 -10.34418 35974 ft 506 kts 46°
2026-05-06 22:29 31.79314 -10.28223 35971 ft 506 kts 46°
2026-05-06 22:29 31.83964 -10.22026 35966 ft 505 kts 46°
2026-05-06 22:30 31.88616 -10.15818 35965 ft 507 kts 47°
2026-05-06 22:30 31.93280 -10.09582 35980 ft 508 kts 47°
2026-05-06 22:31 31.97923 -10.03363 35977 ft 510 kts 46°
2026-05-06 22:31 32.02600 -9.97088 35970 ft 510 kts 46°
2026-05-06 22:32 32.07277 -9.90804 35969 ft 510 kts 46°
2026-05-06 22:32 32.11978 -9.84476 35971 ft 509 kts 46°
2026-05-06 22:33 32.16617 -9.78221 35963 ft 510 kts 47°
2026-05-06 22:33 32.21293 -9.71906 35977 ft 511 kts 47°
2026-05-06 22:34 32.25972 -9.65576 35997 ft 512 kts 47°
2026-05-06 22:34 32.30664 -9.59218 35973 ft 513 kts 47°
2026-05-06 22:35 32.35349 -9.52857 35962 ft 513 kts 47°
2026-05-06 22:35 32.40030 -9.46491 35965 ft 513 kts 47°
2026-05-06 22:36 32.44709 -9.40118 35964 ft 513 kts 47°
2026-05-06 22:36 32.49393 -9.33727 35968 ft 514 kts 47°
2026-05-06 22:37 32.54080 -9.27320 35966 ft 515 kts 47°
2026-05-06 22:37 32.58775 -9.20891 35957 ft 516 kts 47°
2026-05-06 22:38 32.63466 -9.14456 35968 ft 515 kts 47°
2026-05-06 22:38 32.68152 -9.08017 35952 ft 515 kts 48°
2026-05-06 22:39 32.72806 -9.01611 35961 ft 516 kts 48°
2026-05-06 22:39 32.77524 -8.95105 35953 ft 517 kts 48°
2026-05-06 22:40 32.82182 -8.88671 35960 ft 517 kts 48°
2026-05-06 22:40 32.86872 -8.82180 35975 ft 518 kts 48°
2026-05-06 22:41 32.93905 -8.72425 35956 ft 518 kts 48°
2026-05-06 22:42 32.98591 -8.65912 35956 ft 518 kts 48°
2026-05-06 22:42 33.03277 -8.59387 35965 ft 518 kts 48°
2026-05-06 22:43 33.07963 -8.52848 35959 ft 519 kts 48°
2026-05-06 22:43 33.12651 -8.46296 35954 ft 519 kts 48°
2026-05-06 22:44 33.16543 -8.40849 35946 ft 519 kts 48°
2026-05-06 22:44 33.21701 -8.34874 35939 ft 515 kts 32°
2026-05-06 22:45 33.27745 -8.30311 35936 ft 515 kts 28°
2026-05-06 22:45 33.33864 -8.25836 35948 ft 517 kts 28°
2026-05-06 22:46 33.40972 -8.20537 35949 ft 519 kts 29°
2026-05-06 22:46 33.46090 -8.16670 35944 ft 519 kts 29°
2026-05-06 22:47 33.52181 -8.12048 35936 ft 518 kts 29°
2026-05-06 22:47 33.58255 -8.07434 35938 ft 516 kts 29°
2026-05-06 22:48 33.64320 -8.02823 35937 ft 515 kts 29°
2026-05-06 22:48 33.70375 -7.98214 35958 ft 515 kts 29°
2026-05-06 22:49 33.76377 -7.93639 35946 ft 514 kts 29°
2026-05-06 22:49 33.82422 -7.89021 35941 ft 514 kts 29°
2026-05-06 22:50 33.88451 -7.84408 35954 ft 514 kts 29°
2026-05-06 22:50 33.94480 -7.79788 35954 ft 513 kts 29°
2026-05-06 22:51 34.00503 -7.75164 35961 ft 514 kts 29°
2026-05-06 22:51 34.06525 -7.70533 35958 ft 513 kts 30°
2026-05-06 22:52 34.12539 -7.65900 35953 ft 513 kts 30°
2026-05-06 22:52 34.18544 -7.61266 35954 ft 512 kts 30°
2026-05-06 22:53 34.24551 -7.56623 35981 ft 513 kts 30°
2026-05-06 22:53 34.30565 -7.51967 35953 ft 514 kts 30°
2026-05-06 22:54 34.36585 -7.47298 35953 ft 514 kts 30°
2026-05-06 22:54 34.42607 -7.42618 35953 ft 514 kts 30°
2026-05-06 22:55 34.48627 -7.37932 35949 ft 515 kts 30°
2026-05-06 22:55 34.54651 -7.33235 35960 ft 515 kts 30°
2026-05-06 22:56 34.60670 -7.28534 35947 ft 514 kts 30°
2026-05-06 22:56 34.66682 -7.23829 35943 ft 514 kts 30°
2026-05-06 22:57 34.72690 -7.19120 35940 ft 514 kts 30°
2026-05-06 22:57 34.78695 -7.14405 35979 ft 514 kts 30°
2026-05-06 22:58 34.84704 -7.09679 35945 ft 514 kts 30°
2026-05-06 22:58 34.90715 -7.04942 35938 ft 514 kts 30°
2026-05-06 22:59 34.96718 -7.00204 35939 ft 514 kts 30°
2026-05-06 22:59 35.02718 -6.95459 35936 ft 514 kts 30°
2026-05-06 23:00 35.08714 -6.90709 35950 ft 514 kts 30°
2026-05-06 23:00 35.14668 -6.85983 35939 ft 514 kts 30°
2026-05-06 23:01 35.20652 -6.81226 35926 ft 513 kts 30°
2026-05-06 23:01 35.26631 -6.76463 35929 ft 513 kts 30°
2026-05-06 23:02 35.32603 -6.71698 35951 ft 512 kts 30°
2026-05-06 23:02 35.38591 -6.66976 35924 ft 512 kts 29°
2026-05-06 23:03 35.44626 -6.62354 35918 ft 511 kts 29°
2026-05-06 23:03 35.50653 -6.57735 35919 ft 511 kts 29°
2026-05-06 23:04 35.56667 -6.53094 35909 ft 511 kts 29°
2026-05-06 23:04 35.62676 -6.48439 35910 ft 511 kts 29°
2026-05-06 23:05 35.68680 -6.43780 35900 ft 510 kts 29°
2026-05-06 23:05 35.74658 -6.39133 35896 ft 502 kts 29°
2026-05-06 23:05 35.77556 -6.36874 35884 ft 485 kts 29°
2026-05-06 23:06 35.80370 -6.34681 35735 ft 474 kts 29°
2026-05-06 23:06 35.83139 -6.32523 35429 ft 468 kts 29°
2026-05-06 23:06 35.85856 -6.30341 35052 ft 465 kts 31°
2026-05-06 23:06 35.88511 -6.28088 34682 ft 462 kts 32°
2026-05-06 23:07 35.91137 -6.25811 34321 ft 460 kts 32°
2026-05-06 23:07 35.93742 -6.23544 33952 ft 457 kts 32°
2026-05-06 23:07 35.96339 -6.21294 33526 ft 455 kts 32°
2026-05-06 23:07 35.98926 -6.19065 33125 ft 452 kts 32°
2026-05-06 23:08 36.01498 -6.16856 32685 ft 450 kts 32°
2026-05-06 23:08 36.04055 -6.14663 32411 ft 446 kts 32°
2026-05-06 23:08 36.06639 -6.12452 32183 ft 459 kts 32°
2026-05-06 23:08 36.09302 -6.10173 31968 ft 473 kts 32°
2026-05-06 23:09 36.12035 -6.07828 31728 ft 481 kts 32°
2026-05-06 23:09 36.14776 -6.05467 31473 ft 479 kts 32°
2026-05-06 23:09 36.17463 -6.03150 31216 ft 474 kts 32°
2026-05-06 23:09 36.20193 -6.00797 30963 ft 471 kts 32°
2026-05-06 23:10 36.22846 -5.98457 30592 ft 466 kts 37°
2026-05-06 23:10 36.25043 -5.95521 30203 ft 466 kts 56°
2026-05-06 23:10 36.26710 -5.92102 29776 ft 462 kts 59°
2026-05-06 23:10 36.28305 -5.88664 29268 ft 459 kts 59°
2026-05-06 23:11 36.29878 -5.85249 28809 ft 454 kts 59°
2026-05-06 23:11 36.31447 -5.81868 28320 ft 451 kts 59°
2026-05-06 23:11 36.33015 -5.78527 27908 ft 446 kts 59°
2026-05-06 23:11 36.34576 -5.75227 27444 ft 443 kts 59°
2026-05-06 23:12 36.36115 -5.71985 27003 ft 440 kts 59°
2026-05-06 23:12 36.37662 -5.68730 26569 ft 437 kts 59°
2026-05-06 23:12 36.39200 -5.65493 26131 ft 434 kts 59°
2026-05-06 23:12 36.40729 -5.62271 25692 ft 432 kts 59°
2026-05-06 23:13 36.42247 -5.59066 25267 ft 430 kts 59°
2026-05-06 23:13 36.43756 -5.55877 24838 ft 427 kts 59°
2026-05-06 23:13 36.45256 -5.52702 24415 ft 426 kts 59°
2026-05-06 23:13 36.46752 -5.49536 23987 ft 424 kts 60°
2026-05-06 23:14 36.48241 -5.46380 23557 ft 423 kts 60°
2026-05-06 23:14 36.49594 -5.43153 23031 ft 420 kts 72°
2026-05-06 23:14 36.50138 -5.39635 22663 ft 410 kts 91°
2026-05-06 23:14 36.49903 -5.36151 22354 ft 401 kts 102°
2026-05-06 23:15 36.49458 -5.32747 21986 ft 397 kts 103°
2026-05-06 23:15 36.48988 -5.29387 21715 ft 396 kts 103°
2026-05-06 23:15 36.48514 -5.26001 21379 ft 399 kts 103°
2026-05-06 23:15 36.48050 -5.22600 21064 ft 399 kts 103°
2026-05-06 23:16 36.47597 -5.19205 20739 ft 396 kts 103°
2026-05-06 23:16 36.47156 -5.15841 20400 ft 393 kts 102°
2026-05-06 23:16 36.46723 -5.12505 20101 ft 390 kts 102°
2026-05-06 23:16 36.46292 -5.09195 19794 ft 387 kts 102°
2026-05-06 23:17 36.45864 -5.05903 19488 ft 385 kts 102°
2026-05-06 23:17 36.45437 -5.02634 19174 ft 383 kts 102°
2026-05-06 23:17 36.45012 -4.99380 18870 ft 381 kts 102°
2026-05-06 23:17 36.44588 -4.96145 18567 ft 379 kts 102°
2026-05-06 23:18 36.44164 -4.92923 18267 ft 377 kts 102°
2026-05-06 23:18 36.43742 -4.89713 17934 ft 376 kts 102°
2026-05-06 23:18 36.43320 -4.86512 17606 ft 374 kts 102°
2026-05-06 23:18 36.42900 -4.83332 17286 ft 372 kts 102°
2026-05-06 23:19 36.42853 -4.80125 16960 ft 376 kts 81°
2026-05-06 23:19 36.43760 -4.77102 16710 ft 375 kts 60°
2026-05-06 23:19 36.45397 -4.74610 16399 ft 373 kts 43°
2026-05-06 23:19 36.47333 -4.72474 16107 ft 370 kts 41°
2026-05-06 23:20 36.49258 -4.70382 15795 ft 365 kts 41°
2026-05-06 23:20 36.51202 -4.68390 15481 ft 360 kts 31°
2026-05-06 23:20 36.53478 -4.67235 15197 ft 347 kts 10°
2026-05-06 23:20 36.55827 -4.66996 14933 ft 333 kts 358°
2026-05-06 23:21 36.58116 -4.66998 14704 ft 327 kts 358°
2026-05-06 23:21 36.60380 -4.67000 14450 ft 324 kts 358°
2026-05-06 23:21 36.62613 -4.67122 14196 ft 318 kts 345°
2026-05-06 23:21 36.64618 -4.68146 13988 ft 308 kts 323°
2026-05-06 23:22 36.66248 -4.69830 13700 ft 303 kts 315°
2026-05-06 23:22 36.67796 -4.71607 13358 ft 302 kts 314°
2026-05-06 23:22 36.69330 -4.73385 13037 ft 301 kts 314°
2026-05-06 23:22 36.70862 -4.75153 12727 ft 299 kts 315°
2026-05-06 23:23 36.72386 -4.76900 12463 ft 296 kts 315°
2026-05-06 23:23 36.73871 -4.78595 12329 ft 289 kts 315°
2026-05-06 23:23 36.75340 -4.80267 12196 ft 283 kts 315°
2026-05-06 23:23 36.76776 -4.81900 12071 ft 276 kts 315°
2026-05-06 23:24 36.78174 -4.83490 11950 ft 269 kts 315°
2026-05-06 23:24 36.79540 -4.85042 11837 ft 262 kts 316°
2026-05-06 23:24 36.81072 -4.86222 11624 ft 261 kts 342°
2026-05-06 23:24 36.82810 -4.86801 11439 ft 258 kts 343°
2026-05-06 23:25 36.84551 -4.87383 11184 ft 259 kts 343°
2026-05-06 23:25 36.86285 -4.87971 10927 ft 258 kts 343°
2026-05-06 23:25 36.88011 -4.88563 10689 ft 257 kts 343°
2026-05-06 23:25 36.89733 -4.89158 10443 ft 256 kts 343°
2026-05-06 23:26 36.91451 -4.89753 10191 ft 256 kts 344°
2026-05-06 23:26 36.93171 -4.90329 9968 ft 255 kts 349°
2026-05-06 23:26 36.94924 -4.90455 9850 ft 253 kts
2026-05-06 23:26 36.96699 -4.90425 9738 ft 258 kts
2026-05-06 23:27 36.98494 -4.90424 9596 ft 256 kts
2026-05-06 23:27 37.00251 -4.90434 9452 ft 250 kts 360°
2026-05-06 23:27 37.01968 -4.90450 9331 ft 245 kts 360°
2026-05-06 23:27 37.03666 -4.90469 9226 ft 244 kts 360°
2026-05-06 23:28 37.05367 -4.90489 9125 ft 245 kts 360°
2026-05-06 23:28 37.07075 -4.90510 9022 ft 246 kts 359°
2026-05-06 23:28 37.08790 -4.90532 8906 ft 247 kts 360°
2026-05-06 23:28 37.10519 -4.90553 8793 ft 249 kts 360°
2026-05-06 23:29 37.12251 -4.90575 8687 ft 250 kts 359°
2026-05-06 23:29 37.13993 -4.90597 8571 ft 251 kts 360°
2026-05-06 23:29 37.15725 -4.90619 8443 ft 247 kts 360°
2026-05-06 23:29 37.17429 -4.90544 8307 ft 243 kts 14°
2026-05-06 23:30 37.18862 -4.89565 8208 ft 231 kts 48°
2026-05-06 23:30 37.19661 -4.87920 8139 ft 215 kts 73°
2026-05-06 23:30 37.19891 -4.86140 8046 ft 203 kts 91°
2026-05-06 23:30 37.19903 -4.84375 7975 ft 202 kts 91°
2026-05-06 23:31 37.19891 -4.82603 7871 ft 203 kts 97°
2026-05-06 23:31 37.19315 -4.81024 7775 ft 208 kts 137°
2026-05-06 23:31 37.18498 -4.80361 7727 ft 217 kts 161°
2026-05-06 23:31 37.16996 -4.80155 7650 ft 219 kts 180°
2026-05-06 23:32 37.15460 -4.80153 7525 ft 222 kts 180°
2026-05-06 23:32 37.13908 -4.80147 7396 ft 224 kts 180°
2026-05-06 23:32 37.12318 -4.80143 7300 ft 238 kts 179°
2026-05-06 23:32 37.10615 -4.80131 7183 ft 249 kts 179°
2026-05-06 23:33 37.08878 -4.80115 7090 ft 250 kts 179°
2026-05-06 23:33 37.07163 -4.80097 6961 ft 243 kts 179°
2026-05-06 23:33 37.05485 -4.80079 6776 ft 240 kts 179°
2026-05-06 23:33 37.03827 -4.80061 6590 ft 237 kts 179°
2026-05-06 23:34 37.02190 -4.80043 6398 ft 234 kts 179°
2026-05-06 23:34 37.00569 -4.80024 6195 ft 231 kts 179°
2026-05-06 23:34 36.98971 -4.80007 6003 ft 229 kts 179°
2026-05-06 23:34 36.97393 -4.79990 5854 ft 225 kts 178°
2026-05-06 23:35 36.95840 -4.79973 5657 ft 222 kts 178°
2026-05-06 23:35 36.94299 -4.79956 5463 ft 220 kts 178°
2026-05-06 23:35 36.92785 -4.79832 5258 ft 217 kts 165°
2026-05-06 23:35 36.91377 -4.79200 5093 ft 213 kts 159°
2026-05-06 23:36 36.89993 -4.78572 4892 ft 210 kts 160°
2026-05-06 23:36 36.88623 -4.77966 4732 ft 209 kts 160°
2026-05-06 23:36 36.87249 -4.77363 4543 ft 210 kts 160°
2026-05-06 23:36 36.85919 -4.76613 4326 ft 209 kts 152°
2026-05-06 23:37 36.84639 -4.75734 4104 ft 211 kts 151°
2026-05-06 23:37 36.83360 -4.74854 3956 ft 207 kts 151°
2026-05-06 23:37 36.82136 -4.74011 3901 ft 195 kts 151°
2026-05-06 23:37 36.80997 -4.73234 3784 ft 185 kts 151°
2026-05-06 23:38 36.79876 -4.72474 3546 ft 182 kts 151°
2026-05-06 23:38 36.78759 -4.71718 3260 ft 183 kts 151°
2026-05-06 23:38 36.77684 -4.70909 3045 ft 179 kts 137°
2026-05-06 23:38 36.77041 -4.69609 2946 ft 177 kts 117°
2026-05-06 23:39 36.76455 -4.68229 2827 ft 182 kts 119°
2026-05-06 23:39 36.75860 -4.66846 2706 ft 177 kts 118°
2026-05-06 23:39 36.75300 -4.65525 2579 ft 169 kts 118°
2026-05-06 23:39 36.74765 -4.64254 2398 ft 163 kts 118°
2026-05-06 23:40 36.74241 -4.63012 2185 ft 161 kts 117°
2026-05-06 23:40 36.73725 -4.61785 1978 ft 160 kts 117°
2026-05-06 23:40 36.73209 -4.60557 1773 ft 160 kts 117°
2026-05-06 23:40 36.72690 -4.59324 1550 ft 161 kts 117°
2026-05-06 23:41 36.72188 -4.58129 1372 ft 149 kts 117°
2026-05-06 23:41 36.71716 -4.57008 1150 ft 143 kts 117°
2026-05-06 23:41 36.71255 -4.55909 971 ft 144 kts 117°
2026-05-06 23:41 36.70790 -4.54804 780 ft 146 kts 117°
2026-05-06 23:42 36.70324 -4.53670 605 ft 146 kts 116°
2026-05-06 23:42 36.69854 -4.52566 398 ft 143 kts 116°
2026-05-06 23:42 36.69398 -4.51469 226 ft 142 kts 117°
2026-05-06 23:42 36.68939 -4.50387 53 ft 136 kts 117°
2026-05-06 23:43 36.68584 -4.49541 47 ft 80 kts 117°
2026-05-06 23:43 36.68413 -4.49135 45 ft 34 kts 120°
2026-05-06 23:43 36.68282 -4.48939 42 ft 28 kts 140°
2026-05-06 23:43 36.68178 -4.48856 38 ft 7 kts 158°
2026-05-06 23:44 36.68145 -4.48879 37 ft 5 kts 242°
2026-05-06 23:44 36.68140 -4.48916 37 ft 4 kts 275°
2026-05-06 23:44 36.68156 -4.48963 39 ft 8 kts 299°
2026-05-06 23:44 36.68199 -4.49064 39 ft 16 kts 297°
2026-05-06 23:45 36.68249 -4.49186 38 ft 16 kts 297°
2026-05-06 23:45 36.68282 -4.49290 40 ft 11 kts 269°
2026-05-06 23:45 36.68237 -4.49367 39 ft 11 kts 221°
2026-05-06 23:45 36.68180 -4.49429 41 ft 12 kts 222°
2026-05-06 23:46 36.68101 -4.49518 41 ft 18 kts 221°
2026-05-06 23:46 36.68006 -4.49622 41 ft 18 kts 221°
2026-05-06 23:46 36.67916 -4.49722 41 ft 17 kts 222°
2026-05-06 23:46 36.67831 -4.49817 41 ft 13 kts 221°
2026-05-06 23:47 36.67778 -4.49857 41 ft 8 kts 194°
2026-05-06 23:47 36.67728 -4.49887 42 ft 8 kts 214°
2026-05-06 23:47 36.67680 -4.49876 41 ft 8 kts 140°
2026-05-06 23:47 36.67627 -4.49805 42 ft 15 kts 131°
2026-05-06 23:48 36.67546 -4.49692 42 ft 19 kts 131°
2026-05-06 23:48 36.67457 -4.49566 41 ft 19 kts 132°
2026-05-06 23:48 36.67369 -4.49444 42 ft 19 kts 131°
2026-05-06 23:48 36.67296 -4.49341 41 ft 10 kts 131°
2026-05-06 23:49 36.67278 -4.49273 41 ft 9 kts 62°
2026-05-06 23:49 36.67332 -4.49240 41 ft 9 kts 11°
2026-05-06 23:49 36.67380 -4.49200 41 ft 8 kts 41°
2026-05-06 23:49 36.67414 -4.49180 41 ft 5 kts 351°
2026-05-06 23:50 36.67447 -4.49202 40 ft 5 kts 334°
2026-05-06 23:50 36.67458 -4.49210 41 ft 0 kts 332°